Tracking 18630 objects as of 25-May-2017
HD Live streaming from Space Station
objects crossing your sky now

COSMOS 1305

Track COSMOS 1305 now!
10-day predictions
COSMOS 1305 is classified as:


NORAD ID: 12818
Int'l Code: 1981-088A
Perigee: 1,029.2 km
Apogee: 13,474.9 km
Inclination: 63.3 °
Period: 263.7 minutes
Semi major axis: 13623 km
RCS: 12.474 m2 (large)
Launch date: September 11, 1981
Source: Commonwealth of Independent States (former USSR) (CIS)
Launch site: PLESETSK MISSILE AND SPACE COMPLEX (PKMTR)
Your satellite tracking list
Your tracking list is empty





NASA's NSSDC Master Catalog

Two Line Element Set (TLE):
1 12818U 81088A   17144.51970288 -.00000006 +00000-0 +00000-0 0  9999
2 12818 063.3223 314.3955 4567875 209.9242 128.4780 05.46072745711954
Source of the keplerian elements: AFSPC